Погода в Соколке

Россия / Республика Татарстан     55°32′46″N   51°30′38″E
темп.,
°C
ветер,
м/с
пор.,
м/с
влажн.,
%
обл.,
%
осадки,
мм/ч
давл.,
гПа
погр.,
м
18 апреля, вс
вс1800:00+5св35665 0.0 102381
03:00+4св35742 0.0 102377
06:00+4ссв25755 0.0 1023144
09:00+10св46531 0.0 1023680
12:00+12св67425 0.0 10221599
15:00+11св985150 0.0 10231356
18:00+8св710485 0.0 1025884
21:00+4св613475 0.0 1026537
19 апреля, пн
пн1900:00+3всв7145768 0.0 1027650
03:00+1всв7135959 0.0 1029595
06:000всв8145475 0.0 1029671
09:00+4в91241100 0.0 10301164
12:00+6в91134100 0.0 10301515
15:00+8в8102938 0.0 10301734
18:00+6всв711330 0.0 1030746
21:00+3всв614410 0.0 1032495
20 апреля, вт
вт2000:00+1в612470 0.0 1033390
03:000в49580 0.0 1034217
06:00+1вюв510510 0.0 1035389
09:00+5вюв68320 0.0 10351078
12:00+8вюв67260 0.0 10341371
15:00+9вюв67250 0.0 10331440
18:00+8вюв47350 0.0 1032227
21:00+4вюв39460 0.0 1033191
21 апреля, ср
ср2100:00+3вюв4105071 0.0 1032176
03:00+2вюв38525 0.0 1033152
06:00+3вюв31050100 0.0 1032363
09:00+8юв7103178 0.0 1031933
12:00+12ююв71025100 0.0 10301382
15:00+13ююв81024100 0.0 10291483
18:00+10ююв51034100 0.0 1029378
21:00+8ююв41142100 0.0 1029347
22 апреля, чт
чт2200:00+7ююв41046100 0.0 1029291
03:00+7ю3853100 0.0 1030398
06:00+6ю51362100 0.1 1030734
09:00+6ю61177100 0.8 1031949
12:00+6ю61172100 0.6 10321009
15:00+6ююз61281100 1.6 1032918
18:00+6ююз61380100 0.3 1032738
21:00+6ююз3871100 0.3 1032260